Tracking 18843 objects as of 20-November-2017
HD Live streaming from Space Station
objects crossing your sky now

SL-16 DEB

Track SL-16 DEB now!
10-day predictions


NORAD ID: 24301
Int'l Code: 1996-051E
Perigee: 844.6 km
Apogee: 1,155.7 km
Inclination: 71.0 °
Period: 105.0 minutes
Semi major axis: 7371 km
RCS: 0.0888 m2 (small)
Launch date: September 4, 1996
Source: Commonwealth of Independent States (former USSR) (CIS)
Launch site: TYURATAM MISSILE AND SPACE COMPLEX (TTMTR)

Note: This is SATELLITE DEBRIS
aabbcc
Your satellite tracking list
Your tracking list is empty




NASA's NSSDC Master Catalog

Two Line Element Set (TLE):
1 24301U 96051E   17323.91482872 +.00000013 +00000-0 +53403-4 0  9991
2 24301 070.9929 157.8153 0211078 286.8145 176.2080 13.71829035061450
Source of the keplerian elements: AFSPC